St. Thomas, VI

5:51 AM AST on February 18, 2018 (GMT -0400)
King

Weather History for TIST - June, 2014

Change the Weather History Date:

Sunday, June 8, 2014

  Actual Average Record
Temperature  
Mean Temperature 83 °F 83 °F  
Max Temperature 87 °F 89 °F 97 °F (1994)
Min Temperature 78 °F 78 °F 72 °F (1954)
Degree Days  
Heating Degree Days 0 0  
Month to date heating degree days 0 0  
Since 1 June heating degree days 0 0  
Since 1 July heating degree days 0 0  
Cooling Degree Days 18 18  
Month to date cooling degree days 147 144  
Year to date cooling degree days 2370 2396  
Since 1 June cooling degree days 147 144  
Growing Degree Days 32 (Base 50)    
Moisture  
Dew Point 75 °F    
Average Humidity 77    
Maximum Humidity 85    
Minimum Humidity 68    
Precipitation  
Precipitation 0.00 in 0.09 in 1.54 in (2016)
Month to date precipitation 0.03 0.63  
Year to date precipitation 13.27 11.66  
Sea Level Pressure  
Sea Level Pressure 30.00 in    
Wind  
Wind Speed 10 mph (ESE)    
Max Wind Speed 18 mph    
Max Gust Speed 23 mph    
Visibility 10 miles    
Events      
T = Trace of Precipitation, MM = Missing Value Source: NWS Daily Summary

Daily Weather History Graph

Daily Weather History Graph

Search for Another Location

Airport or City:

Trip Planner

Search our weather history database for the weather conditions in past years. The results will help you decide how hot, cold, wet, or windy it might be!

Date:

Astronomy

Jun. 08, 2014 Rise Set
Actual Time 5:42 AM AST 6:55 PM AST
Civil Twilight 5:18 AM AST 7:19 PM AST
Nautical Twilight 4:50 AM AST 7:47 PM AST
Astronomical Twilight 4:20 AM AST 8:17 PM AST
Moon 2:42 PM AST (6/8) 1:56 AM AST (6/8)
Length of Visible Light 14h 00m
Length of Day
13h 12m
Waxing Gibbous, 77% of the Moon is Illuminated
Jun 8
Waxing Gibbous
Jun 13
Full
Jun 19
Last Quarter
Jun 27
New
Jul 5
First Quarter

Hourly Weather History & Observations

Time (AST) Temp. Heat Index Dew Point Humidity Pressure Visibility Wind Dir Wind Speed Gust Speed Precip Events Conditions
12:53 AM 79.0 °F - 73.9 °F 84% 30.00 in 10.0 mi East 5.8 mph - N/A   Overcast
1:53 AM 79.0 °F - 73.0 °F 82% 29.98 in 10.0 mi East 4.6 mph - N/A   Overcast
2:53 AM 79.0 °F - 73.0 °F 82% 29.96 in 10.0 mi East 6.9 mph - N/A   Overcast
3:53 AM 79.0 °F - 73.0 °F 82% 29.96 in 10.0 mi East 8.1 mph - N/A   Overcast
4:53 AM 79.0 °F - 73.0 °F 82% 29.96 in 10.0 mi East 8.1 mph - N/A   Scattered Clouds
5:31 AM 78.8 °F - 73.4 °F 83% 29.96 in 10.0 mi East 8.1 mph - N/A   Mostly Cloudy
5:53 AM 79.0 °F - 73.0 °F 82% 29.96 in 10.0 mi East 10.4 mph - N/A   Scattered Clouds
6:27 AM 80.6 °F 85.4 °F 73.4 °F 79% 29.97 in 10.0 mi ESE 11.5 mph - N/A   Mostly Cloudy
6:53 AM 80.1 °F 84.5 °F 73.9 °F 81% 29.99 in 10.0 mi ESE 11.5 mph - N/A   Mostly Cloudy
7:53 AM 82.9 °F 88.8 °F 73.0 °F 72% 30.00 in 10.0 mi ESE 11.5 mph - N/A   Overcast
8:53 AM 84.0 °F 90.2 °F 73.0 °F 69% 30.02 in 10.0 mi SE 12.7 mph - N/A   Overcast
9:53 AM 84.9 °F 92.1 °F 73.9 °F 69% 30.02 in 10.0 mi SE 12.7 mph - N/A   Overcast
10:53 AM 86.0 °F 95.1 °F 75.0 °F 70% 30.02 in 10.0 mi SE 13.8 mph - N/A   Overcast
11:53 AM 84.9 °F 94.1 °F 75.9 °F 74% 30.02 in 10.0 mi SE 15.0 mph - N/A   Overcast
12:48 PM 87.8 °F 97.6 °F 75.2 °F 66% 30.01 in 10.0 mi SE 12.7 mph - N/A   Overcast
12:53 PM 87.1 °F 97.3 °F 75.9 °F 69% 30.01 in 10.0 mi SE 13.8 mph - N/A   Overcast
1:14 PM 87.8 °F 97.6 °F 75.2 °F 66% 30.00 in 10.0 mi SE 13.8 mph - N/A   Overcast
1:53 PM 86.0 °F 96.0 °F 75.9 °F 72% 29.99 in 10.0 mi SE 12.7 mph - N/A   Overcast
2:38 PM 84.2 °F 92.3 °F 75.2 °F 74% 29.98 in 10.0 mi SE 15.0 mph 20.7 mph N/A   Overcast
2:53 PM 86.0 °F 96.9 °F 77.0 °F 74% 29.99 in 10.0 mi SE 11.5 mph 19.6 mph N/A   Overcast
3:00 PM 86.0 °F 96.9 °F 77.0 °F 74% 29.98 in 10.0 mi SE 11.5 mph - N/A   Overcast
3:36 PM 84.2 °F 94.1 °F 77.0 °F 79% 29.98 in 10.0 mi SSE 12.7 mph - N/A   Overcast
3:53 PM 84.9 °F 95.3 °F 77.0 °F 77% 29.98 in 10.0 mi SE 10.4 mph - N/A   Overcast
4:53 PM 84.0 °F 93.7 °F 77.0 °F 79% 29.98 in 10.0 mi SE 8.1 mph - N/A   Overcast
5:53 PM 82.9 °F 90.8 °F 75.9 °F 79% 29.98 in 10.0 mi SE 10.4 mph - N/A   Mostly Cloudy
6:53 PM 82.9 °F 91.8 °F 77.0 °F 82% 29.98 in 10.0 mi ESE 9.2 mph - N/A   Mostly Cloudy
7:48 PM 82.4 °F 89.5 °F 75.2 °F 79% 29.99 in 10.0 mi ESE 9.2 mph - N/A   Scattered Clouds
7:53 PM 82.0 °F 89.4 °F 75.9 °F 82% 29.99 in 10.0 mi ESE 8.1 mph - N/A   Scattered Clouds
8:00 PM 82.4 °F 89.5 °F 75.2 °F 79% 30.00 in 10.0 mi East 6.9 mph - N/A   Overcast
8:53 PM 82.0 °F 89.4 °F 75.9 °F 82% 30.02 in 10.0 mi East 4.6 mph - N/A   Overcast
9:27 PM 82.4 °F 89.5 °F 75.2 °F 79% 30.03 in 10.0 mi East 6.9 mph - N/A   Overcast
9:53 PM 82.0 °F 88.6 °F 75.0 °F 79% 30.03 in 10.0 mi East 8.1 mph - N/A   Overcast
10:13 PM 82.4 °F 89.5 °F 75.2 °F 79% 30.03 in 10.0 mi East 8.1 mph - N/A   Overcast
10:53 PM 82.0 °F 89.4 °F 75.9 °F 82% 30.03 in 10.0 mi East 10.4 mph - N/A   Overcast
11:44 PM 82.4 °F 89.5 °F 75.2 °F 79% 30.03 in 10.0 mi SE 11.5 mph - N/A   Overcast
11:53 PM 81.0 °F 87.3 °F 75.9 °F 85% 30.03 in 10.0 mi ESE 8.1 mph - N/A   Overcast